Time,TemperatureF,DewpointF,PressureIn,WindDirection,WindDirectionDegrees,WindSpeedMPH,WindSpeedGustMPH,Humidity,HourlyPrecipIn,Conditions,Clouds,dailyrainin,SoftwareType,DateUTC
2013-10-28 00:02:00,64.8,16.1,27.08,SE,135,0.0,2.7,15,0.00,,---,0.00,VWS V13.01,2013-10-28 07:02:00,
2013-10-28 00:07:00,64.9,22.9,27.05,SE,133,0.0,2.7,20,0.00,,---,0.00,VWS V13.01,2013-10-28 07:07:00,
2013-10-28 00:12:00,65.1,27.5,27.05,SE,125,2.2,4.0,24,0.00,,---,0.00,VWS V13.01,2013-10-28 07:12:00,
2013-10-28 00:17:00,65.5,28.8,27.05,SE,132,2.7,4.0,25,0.00,,---,0.00,VWS V13.01,2013-10-28 07:17:00,
2013-10-28 00:23:00,65.5,28.8,27.05,ESE,107,3.1,4.0,25,0.00,,---,0.00,VWS V13.01,2013-10-28 07:23:00,
2013-10-28 00:28:00,65.7,28.9,27.05,SE,127,3.6,3.6,25,0.00,,---,0.00,VWS V13.01,2013-10-28 07:28:00,
2013-10-28 00:33:00,65.7,28.9,27.05,ESE,119,0.0,3.1,25,0.00,,---,0.00,VWS V13.01,2013-10-28 07:33:00,
2013-10-28 00:38:00,65.5,28.8,27.05,ESE,119,0.0,0.0,25,0.00,,---,0.00,VWS V13.01,2013-10-28 07:38:00,
2013-10-28 00:43:00,65.3,28.6,27.05,SE,125,0.0,4.0,25,0.00,,---,0.00,VWS V13.01,2013-10-28 07:43:00,
2013-10-28 00:48:00,65.1,28.5,27.05,SE,125,0.0,0.0,25,0.00,,---,0.00,VWS V13.01,2013-10-28 07:48:00,
2013-10-28 00:53:00,64.9,28.3,27.05,SE,125,0.0,0.0,25,0.00,,---,0.00,VWS V13.01,2013-10-28 07:53:00,
2013-10-28 00:58:00,64.8,28.1,27.05,SE,125,0.0,0.0,25,0.00,,---,0.00,VWS V13.01,2013-10-28 07:58:00,
2013-10-28 01:04:00,64.6,28.0,27.05,SE,125,0.0,0.0,25,0.00,,---,0.00,VWS V13.01,2013-10-28 08:04:00,
2013-10-28 01:09:00,64.2,28.6,27.05,SE,125,0.0,0.0,26,0.00,,---,0.00,VWS V13.01,2013-10-28 08:09:00,
2013-10-28 01:14:00,63.5,28.0,27.05,SE,125,0.0,0.0,26,0.00,,---,0.00,VWS V13.01,2013-10-28 08:14:00,
2013-10-28 01:19:00,63.1,27.7,27.05,SE,125,0.0,0.0,26,0.00,,---,0.00,VWS V13.01,2013-10-28 08:19:00,
2013-10-28 01:25:00,62.8,27.4,27.05,SE,125,0.0,0.0,26,0.00,,---,0.00,VWS V13.01,2013-10-28 08:25:00,
2013-10-28 01:29:00,62.4,27.1,27.05,SE,125,0.0,0.0,26,0.00,,---,0.00,VWS V13.01,2013-10-28 08:29:00,
2013-10-28 01:34:00,62.2,26.0,27.05,East,91,4.0,5.4,25,0.00,,---,0.00,VWS V13.01,2013-10-28 08:34:00,
2013-10-28 01:40:00,62.1,25.9,27.05,East,96,0.0,3.1,25,0.00,,---,0.00,VWS V13.01,2013-10-28 08:40:00,
2013-10-28 01:45:00,62.1,26.8,27.05,East,93,0.0,2.7,26,0.00,,---,0.00,VWS V13.01,2013-10-28 08:45:00,
2013-10-28 01:50:00,62.1,26.8,27.05,East,93,0.0,0.0,26,0.00,,---,0.00,VWS V13.01,2013-10-28 08:50:00,
2013-10-28 01:56:00,61.2,25.1,27.05,East,93,0.0,0.0,25,0.00,,---,0.00,VWS V13.01,2013-10-28 08:56:00,
2013-10-28 02:01:00,60.6,24.6,27.05,East,93,0.0,0.0,25,0.00,,---,0.00,VWS V13.01,2013-10-28 09:01:00,
2013-10-28 02:06:00,60.3,24.3,27.05,East,93,0.0,0.0,25,0.00,,---,0.00,VWS V13.01,2013-10-28 09:06:00,
2013-10-28 02:11:00,59.5,23.7,27.05,East,93,0.0,0.0,25,0.00,,---,0.00,VWS V13.01,2013-10-28 09:11:00,
2013-10-28 02:16:00,59.0,23.2,27.05,East,93,0.0,0.0,25,0.00,,---,0.00,VWS V13.01,2013-10-28 09:16:00,
2013-10-28 02:21:00,58.8,24.0,27.05,East,93,0.0,0.0,26,0.00,,---,0.00,VWS V13.01,2013-10-28 09:21:00,
2013-10-28 02:27:00,58.6,23.9,27.05,East,93,0.0,0.0,26,0.00,,---,0.00,VWS V13.01,2013-10-28 09:27:00,
2013-10-28 02:32:00,58.5,23.7,27.05,East,93,0.0,0.0,26,0.00,,---,0.00,VWS V13.01,2013-10-28 09:32:00,
2013-10-28 02:37:00,58.5,24.6,27.05,East,93,0.0,0.0,27,0.00,,---,0.00,VWS V13.01,2013-10-28 09:37:00,
2013-10-28 02:42:00,58.6,24.8,27.05,East,93,0.0,0.0,27,0.00,,---,0.00,VWS V13.01,2013-10-28 09:42:00,
2013-10-28 02:47:00,58.8,25.8,27.05,East,95,0.0,0.0,28,0.00,,---,0.00,VWS V13.01,2013-10-28 09:47:00,
2013-10-28 02:53:00,59.0,26.0,27.05,East,98,0.0,4.0,28,0.00,,---,0.00,VWS V13.01,2013-10-28 09:53:00,
2013-10-28 02:58:00,59.4,26.3,27.05,SSE,151,0.0,4.9,28,0.00,,---,0.00,VWS V13.01,2013-10-28 09:58:00,
2013-10-28 03:03:00,59.9,26.7,27.05,SE,132,3.6,4.0,28,0.00,,---,0.00,VWS V13.01,2013-10-28 10:03:00,
2013-10-28 03:08:00,60.1,26.9,27.05,SE,140,2.2,5.4,28,0.00,,---,0.00,VWS V13.01,2013-10-28 10:08:00,
2013-10-28 03:13:00,60.3,27.9,27.05,SE,124,3.1,3.6,29,0.00,,---,0.00,VWS V13.01,2013-10-28 10:13:00,
2013-10-28 03:18:00,60.4,28.1,27.05,SE,140,4.0,4.0,29,0.00,,---,0.00,VWS V13.01,2013-10-28 10:18:00,
2013-10-28 03:23:00,60.6,28.2,27.05,ESE,123,3.6,5.4,29,0.00,,---,0.00,VWS V13.01,2013-10-28 10:23:00,
2013-10-28 03:28:00,60.8,28.4,27.05,SE,133,2.7,4.9,29,0.00,,---,0.00,VWS V13.01,2013-10-28 10:28:00,
2013-10-28 03:33:00,61.0,28.5,27.05,ESE,116,0.0,2.7,29,0.00,,---,0.00,VWS V13.01,2013-10-28 10:33:00,
2013-10-28 03:38:00,61.2,28.7,27.05,ESE,109,0.0,0.0,29,0.00,,---,0.00,VWS V13.01,2013-10-28 10:38:00,
2013-10-28 03:43:00,61.2,28.7,27.05,ESE,110,0.0,3.6,29,0.00,,---,0.00,VWS V13.01,2013-10-28 10:43:00,
2013-10-28 03:49:00,61.2,28.7,27.05,East,87,4.0,5.8,29,0.00,,---,0.00,VWS V13.01,2013-10-28 10:49:00,
2013-10-28 03:54:00,61.0,28.5,27.08,East,91,0.0,4.0,29,0.00,,---,0.00,VWS V13.01,2013-10-28 10:54:00,
2013-10-28 03:59:00,61.0,28.5,27.08,East,92,0.0,3.1,29,0.00,,---,0.00,VWS V13.01,2013-10-28 10:59:00,
2013-10-28 04:04:00,61.0,28.5,27.08,East,90,3.1,4.9,29,0.00,,---,0.00,VWS V13.01,2013-10-28 11:04:00,
2013-10-28 04:09:00,61.0,28.5,27.08,ESE,111,5.8,6.3,29,0.00,,---,0.00,VWS V13.01,2013-10-28 11:09:00,
2013-10-28 04:14:00,61.2,28.7,27.08,SE,138,3.6,7.2,29,0.00,,---,0.00,VWS V13.01,2013-10-28 11:14:00,
2013-10-28 04:19:00,61.3,28.8,27.08,SE,125,6.3,6.3,29,0.00,,---,0.00,VWS V13.01,2013-10-28 11:19:00,
2013-10-28 04:25:00,61.3,28.8,27.08,SE,129,3.6,5.8,29,0.00,,---,0.00,VWS V13.01,2013-10-28 11:25:00,
2013-10-28 04:30:00,61.5,29.0,27.08,SSE,152,4.0,5.8,29,0.00,,---,0.00,VWS V13.01,2013-10-28 11:30:00,
2013-10-28 04:35:00,61.5,29.0,27.08,SE,126,4.0,4.9,29,0.00,,---,0.00,VWS V13.01,2013-10-28 11:35:00,
2013-10-28 04:41:00,61.7,29.1,27.08,ESE,112,0.0,5.4,29,0.00,,---,0.00,VWS V13.01,2013-10-28 11:41:00,
2013-10-28 04:46:00,61.7,29.1,27.08,ESE,118,3.6,3.6,29,0.00,,---,0.00,VWS V13.01,2013-10-28 11:46:00,
2013-10-28 04:51:00,61.7,29.1,27.08,ESE,121,2.7,4.9,29,0.00,,---,0.00,VWS V13.01,2013-10-28 11:51:00,
2013-10-28 04:56:00,61.5,29.0,27.08,SE,132,2.7,5.4,29,0.00,,---,0.00,VWS V13.01,2013-10-28 11:56:00,
2013-10-28 05:02:00,61.2,28.7,27.08,SE,135,0.0,0.0,29,0.00,,---,0.00,VWS V13.01,2013-10-28 12:02:00,
2013-10-28 05:07:00,61.0,28.5,27.08,SE,134,0.0,0.0,29,0.00,,---,0.00,VWS V13.01,2013-10-28 12:07:00,
2013-10-28 05:12:00,60.8,28.4,27.08,ESE,106,2.7,4.9,29,0.00,,---,0.00,VWS V13.01,2013-10-28 12:12:00,
2013-10-28 05:17:00,60.8,28.4,27.08,SE,127,0.0,3.6,29,0.00,,---,0.00,VWS V13.01,2013-10-28 12:17:00,
2013-10-28 05:23:00,60.6,29.0,27.08,SE,130,0.0,0.0,30,0.00,,---,0.00,VWS V13.01,2013-10-28 12:23:00,
2013-10-28 05:28:00,60.6,29.0,27.08,SE,134,0.0,0.0,30,0.00,,---,0.00,VWS V13.01,2013-10-28 12:28:00,
2013-10-28 05:33:00,60.4,28.9,27.08,SE,134,2.7,3.1,30,0.00,,---,0.00,VWS V13.01,2013-10-28 12:33:00,
2013-10-28 05:39:00,60.4,28.9,27.08,SSE,147,4.0,4.0,30,0.00,,---,0.00,VWS V13.01,2013-10-28 12:39:00,
2013-10-28 05:44:00,60.4,28.1,27.08,SE,131,3.6,4.0,29,0.00,,---,0.00,VWS V13.01,2013-10-28 12:44:00,
2013-10-28 05:49:00,60.1,27.7,27.08,East,97,3.6,6.3,29,0.00,,---,0.00,VWS V13.01,2013-10-28 12:49:00,
2013-10-28 05:54:00,59.9,27.6,27.08,SE,128,4.0,4.0,29,0.00,,---,0.00,VWS V13.01,2013-10-28 12:54:00,
2013-10-28 06:00:00,59.9,27.6,27.08,SE,126,5.8,5.8,29,0.00,,---,0.00,VWS V13.01,2013-10-28 13:00:00,
2013-10-28 06:05:00,60.1,27.7,27.08,SE,142,4.0,7.2,29,0.00,,---,0.00,VWS V13.01,2013-10-28 13:05:00,
2013-10-28 06:10:00,60.3,27.9,27.08,East,96,0.0,6.3,29,0.00,,---,0.00,VWS V13.01,2013-10-28 13:10:00,
2013-10-28 06:16:00,60.4,28.1,27.08,ESE,114,2.7,4.9,29,0.00,,---,0.00,VWS V13.01,2013-10-28 13:16:00,
2013-10-28 06:21:00,60.4,28.1,27.08,ESE,121,3.1,3.1,29,0.00,,---,0.00,VWS V13.01,2013-10-28 13:21:00,
2013-10-28 06:26:00,60.4,28.1,27.08,SE,131,4.0,4.9,29,0.00,,---,0.00,VWS V13.01,2013-10-28 13:26:00,
2013-10-28 06:31:00,60.6,28.2,27.08,SSE,157,5.4,5.4,29,0.00,,---,0.00,VWS V13.01,2013-10-28 13:31:00,
2013-10-28 06:37:00,60.8,28.4,27.08,East,93,3.1,4.5,29,0.00,,---,0.00,VWS V13.01,2013-10-28 13:37:00,
2013-10-28 06:42:00,60.8,28.4,27.08,SE,138,4.0,5.8,29,0.00,,---,0.00,VWS V13.01,2013-10-28 13:42:00,
2013-10-28 06:47:00,61.0,28.5,27.08,SSE,147,3.6,4.5,29,0.00,,---,0.00,VWS V13.01,2013-10-28 13:47:00,
2013-10-28 06:53:00,60.8,28.4,27.11,SE,127,0.0,3.6,29,0.00,,---,0.00,VWS V13.01,2013-10-28 13:53:00,
2013-10-28 06:58:00,60.8,28.4,27.11,SE,134,3.1,5.8,29,0.00,,---,0.00,VWS V13.01,2013-10-28 13:58:00,
2013-10-28 07:03:00,60.8,28.4,27.11,SE,129,4.0,5.4,29,0.00,,---,0.00,VWS V13.01,2013-10-28 14:03:00,
2013-10-28 07:08:00,61.0,29.4,27.11,SE,127,4.0,5.8,30,0.00,,---,0.00,VWS V13.01,2013-10-28 14:08:00,
2013-10-28 07:14:00,61.0,29.4,27.11,ESE,118,3.6,5.4,30,0.00,,---,0.00,VWS V13.01,2013-10-28 14:14:00,
2013-10-28 07:19:00,61.3,29.7,27.11,ESE,114,6.7,6.7,30,0.00,,---,0.00,VWS V13.01,2013-10-28 14:19:00,
2013-10-28 07:24:00,61.5,29.8,27.11,SE,132,5.8,5.8,30,0.00,,---,0.00,VWS V13.01,2013-10-28 14:24:00,
2013-10-28 07:29:00,61.7,30.0,27.11,SSE,154,2.2,4.9,30,0.00,,---,0.00,VWS V13.01,2013-10-28 14:29:00,
2013-10-28 07:35:00,61.9,29.3,27.11,ESE,105,5.4,5.8,29,0.00,,---,0.00,VWS V13.01,2013-10-28 14:35:00,
2013-10-28 07:40:00,62.2,29.6,27.11,ESE,112,2.7,6.3,29,0.00,,---,0.00,VWS V13.01,2013-10-28 14:40:00,
2013-10-28 07:45:00,62.4,29.8,27.11,ESE,107,4.9,4.9,29,0.00,,---,0.00,VWS V13.01,2013-10-28 14:45:00,
2013-10-28 07:50:00,63.0,30.2,27.11,South,179,3.1,4.0,29,0.00,,---,0.00,VWS V13.01,2013-10-28 14:50:00,
2013-10-28 07:55:00,63.3,30.5,27.11,SE,140,5.4,5.8,29,0.00,,---,0.00,VWS V13.01,2013-10-28 14:55:00,
2013-10-28 08:00:00,63.9,31.0,27.11,SE,125,6.3,6.3,29,0.00,,---,0.00,VWS V13.01,2013-10-28 15:00:00,
2013-10-28 08:05:00,64.4,30.6,27.11,East,99,5.4,5.4,28,0.00,,---,0.00,VWS V13.01,2013-10-28 15:05:00,
2013-10-28 08:10:00,65.1,31.2,27.11,ESE,102,4.0,5.4,28,0.00,,---,0.00,VWS V13.01,2013-10-28 15:10:00,
2013-10-28 08:16:00,65.7,31.7,27.11,East,80,5.4,5.4,28,0.00,,---,0.00,VWS V13.01,2013-10-28 15:16:00,
2013-10-28 08:21:00,66.0,32.0,27.11,East,100,2.7,6.3,28,0.00,,---,0.00,VWS V13.01,2013-10-28 15:21:00,
2013-10-28 08:26:00,66.4,31.4,27.11,East,87,7.2,7.2,27,0.00,,---,0.00,VWS V13.01,2013-10-28 15:26:00,
2013-10-28 08:31:00,66.7,31.7,27.11,SE,125,4.9,8.7,27,0.00,,---,0.00,VWS V13.01,2013-10-28 15:31:00,
2013-10-28 08:36:00,67.3,32.2,27.11,SSE,153,5.8,5.8,27,0.00,,---,0.00,VWS V13.01,2013-10-28 15:36:00,
2013-10-28 08:41:00,67.8,32.7,27.11,ESE,121,4.9,6.3,27,0.00,,---,0.00,VWS V13.01,2013-10-28 15:41:00,
2013-10-28 08:46:00,68.4,32.2,27.11,SE,135,6.3,8.1,26,0.00,,---,0.00,VWS V13.01,2013-10-28 15:46:00,
2013-10-28 08:52:00,68.7,31.5,27.14,ESE,114,4.0,6.3,25,0.00,,---,0.00,VWS V13.01,2013-10-28 15:52:00,
2013-10-28 08:57:00,69.1,31.8,27.14,ESE,103,4.9,7.2,25,0.00,,---,0.00,VWS V13.01,2013-10-28 15:57:00,
2013-10-28 09:02:00,69.6,32.3,27.14,East,86,3.6,8.3,25,0.00,,---,0.00,VWS V13.01,2013-10-28 16:02:00,
2013-10-28 09:08:00,70.0,31.6,27.14,East,96,6.3,6.3,24,0.00,,---,0.00,VWS V13.01,2013-10-28 16:08:00,
2013-10-28 09:13:00,70.5,32.0,27.14,ENE,69,4.0,5.4,24,0.00,,---,0.00,VWS V13.01,2013-10-28 16:13:00,
2013-10-28 09:18:00,70.9,32.3,27.14,East,96,2.7,4.0,24,0.00,,---,0.00,VWS V13.01,2013-10-28 16:18:00,
2013-10-28 09:23:00,71.2,32.6,27.14,East,98,0.0,0.0,24,0.00,,---,0.00,VWS V13.01,2013-10-28 16:23:00,
2013-10-28 09:29:00,71.8,30.9,27.14,South,191,0.0,6.3,22,0.00,,---,0.00,VWS V13.01,2013-10-28 16:29:00,
2013-10-28 09:34:00,72.3,31.4,27.14,SSW,206,5.8,7.2,22,0.00,,---,0.00,VWS V13.01,2013-10-28 16:34:00,
2013-10-28 09:39:00,72.7,31.7,27.14,SSW,206,4.0,5.4,22,0.00,,---,0.00,VWS V13.01,2013-10-28 16:39:00,
2013-10-28 09:45:00,73.0,32.0,27.14,SSW,210,7.6,7.6,22,0.00,,---,0.00,VWS V13.01,2013-10-28 16:45:00,
2013-10-28 09:50:00,73.4,27.4,27.14,SSW,199,5.8,7.6,18,0.00,,---,0.00,VWS V13.01,2013-10-28 16:50:00,
2013-10-28 09:55:00,73.6,27.5,27.14,SSW,212,10.5,10.5,18,0.00,,---,0.00,VWS V13.01,2013-10-28 16:55:00,
2013-10-28 10:00:00,73.9,25.0,27.14,SW,218,2.7,5.8,16,0.00,,---,0.00,VWS V13.01,2013-10-28 17:00:00,
2013-10-28 10:05:00,74.1,25.1,27.14,SSW,198,4.9,5.4,16,0.00,,---,0.00,VWS V13.01,2013-10-28 17:05:00,
2013-10-28 10:10:00,74.5,20.5,27.14,South,172,7.2,7.6,13,0.00,,---,0.00,VWS V13.01,2013-10-28 17:10:00,
2013-10-28 10:16:00,75.0,20.9,27.14,SSE,151,7.2,7.6,13,0.00,,---,0.00,VWS V13.01,2013-10-28 17:16:00,
2013-10-28 10:21:00,75.2,14.9,27.14,SW,214,6.3,11.0,10,0.00,,---,0.00,VWS V13.01,2013-10-28 17:21:00,
2013-10-28 10:26:00,75.4,15.1,27.14,South,191,3.1,5.8,10,0.00,,---,0.00,VWS V13.01,2013-10-28 17:26:00,
2013-10-28 10:31:00,75.7,15.4,27.14,SSW,201,7.6,8.7,10,0.00,,---,0.00,VWS V13.01,2013-10-28 17:31:00,
2013-10-28 10:37:00,75.9,15.5,27.14,South,176,0.0,6.3,10,0.00,,---,0.00,VWS V13.01,2013-10-28 17:37:00,
2013-10-28 10:42:00,75.9,10.4,27.14,SE,140,3.6,5.4,8,0.00,,---,0.00,VWS V13.01,2013-10-28 17:42:00,
2013-10-28 10:47:00,76.1,-18.3,27.14,SE,130,5.4,10.5,2,0.00,,---,0.00,VWS V13.01,2013-10-28 17:47:00,
2013-10-28 10:53:00,76.3,-18.2,27.14,SSW,212,11.4,11.4,2,0.00,,---,0.00,VWS V13.01,2013-10-28 17:53:00,
2013-10-28 10:58:00,76.5,-18.1,27.14,SSW,192,2.7,8.3,2,0.00,,---,0.00,VWS V13.01,2013-10-28 17:58:00,
2013-10-28 11:03:00,76.6,-18.0,27.14,SSW,198,7.6,8.7,2,0.00,,---,0.00,VWS V13.01,2013-10-28 18:03:00,
2013-10-28 11:08:00,77.2,-17.6,27.11,South,171,8.1,10.1,2,0.00,,---,0.00,VWS V13.01,2013-10-28 18:08:00,
2013-10-28 11:14:00,77.5,-17.4,27.11,SSW,194,4.0,8.7,2,0.00,,---,0.00,VWS V13.01,2013-10-28 18:14:00,
2013-10-28 11:19:00,77.7,-17.3,27.11,South,175,10.1,10.1,2,0.00,,---,0.00,VWS V13.01,2013-10-28 18:19:00,
2013-10-28 11:24:00,78.1,-17.0,27.11,South,183,5.8,7.2,2,0.00,,---,0.00,VWS V13.01,2013-10-28 18:24:00,
2013-10-28 11:30:00,78.4,-16.8,27.11,SE,139,6.3,10.5,2,0.00,,---,0.00,VWS V13.01,2013-10-28 18:30:00,
2013-10-28 11:35:00,78.6,-16.7,27.11,South,183,6.3,7.6,2,0.00,,---,0.00,VWS V13.01,2013-10-28 18:35:00,
2013-10-28 11:40:00,79.0,-16.5,27.11,SW,221,0.0,8.1,2,0.00,,---,0.00,VWS V13.01,2013-10-28 18:40:00,
2013-10-28 11:46:00,79.3,-16.2,27.11,South,173,10.1,10.5,2,0.00,,---,0.00,VWS V13.01,2013-10-28 18:46:00,
2013-10-28 11:51:00,79.5,-16.1,27.11,SSW,201,6.3,10.5,2,0.00,,---,0.00,VWS V13.01,2013-10-28 18:51:00,
2013-10-28 11:56:00,79.9,-15.9,27.11,SSE,163,4.9,5.8,2,0.00,,---,0.00,VWS V13.01,2013-10-28 18:56:00,
2013-10-28 12:01:00,80.1,-15.8,27.11,South,183,10.1,10.1,2,0.00,,---,0.00,VWS V13.01,2013-10-28 19:01:00,
2013-10-28 12:06:00,80.4,-15.5,27.11,SSE,154,8.3,11.9,2,0.00,,---,0.00,VWS V13.01,2013-10-28 19:06:00,
2013-10-28 12:11:00,80.6,-15.4,27.11,SSW,198,12.8,12.8,2,0.00,,---,0.00,VWS V13.01,2013-10-28 19:11:00,
2013-10-28 12:17:00,80.8,-15.3,27.11,SW,218,5.8,5.8,2,0.00,,---,0.00,VWS V13.01,2013-10-28 19:17:00,
2013-10-28 12:22:00,80.8,-15.3,27.08,South,180,5.4,10.1,2,0.00,,---,0.00,VWS V13.01,2013-10-28 19:22:00,
2013-10-28 12:27:00,81.1,-15.1,27.08,SSW,192,8.1,10.1,2,0.00,,---,0.00,VWS V13.01,2013-10-28 19:27:00,
2013-10-28 12:33:00,81.3,-14.9,27.08,SSW,194,7.6,13.2,2,0.00,,---,0.00,VWS V13.01,2013-10-28 19:33:00,
2013-10-28 12:38:00,81.1,-15.1,27.08,South,191,4.0,10.5,2,0.00,,---,0.00,VWS V13.01,2013-10-28 19:38:00,
2013-10-28 12:43:00,81.7,-14.7,27.08,South,178,10.5,11.9,2,0.00,,---,0.00,VWS V13.01,2013-10-28 19:43:00,
2013-10-28 12:48:00,82.0,-14.5,27.08,South,178,15.4,15.4,2,0.00,,---,0.00,VWS V13.01,2013-10-28 19:48:00,
2013-10-28 12:53:00,82.0,-14.5,27.08,SSE,157,5.8,13.2,2,0.00,,---,0.00,VWS V13.01,2013-10-28 19:53:00,
2013-10-28 12:58:00,81.7,-14.7,27.08,SE,140,11.0,16.8,2,0.00,,---,0.00,VWS V13.01,2013-10-28 19:58:00,
2013-10-28 13:04:00,81.5,-14.8,27.08,ESE,114,6.7,10.1,2,0.00,,---,0.00,VWS V13.01,2013-10-28 20:04:00,
2013-10-28 13:09:00,81.7,-14.7,27.05,South,177,12.3,15.0,2,0.00,,---,0.00,VWS V13.01,2013-10-28 20:09:00,
2013-10-28 13:14:00,81.9,-14.6,27.05,South,179,11.4,11.4,2,0.00,,---,0.00,VWS V13.01,2013-10-28 20:14:00,
2013-10-28 13:19:00,81.9,-14.6,27.05,South,182,8.1,12.8,2,0.00,,---,0.00,VWS V13.01,2013-10-28 20:19:00,
2013-10-28 13:24:00,81.7,-14.7,27.05,SSE,161,8.1,12.3,2,0.00,,---,0.00,VWS V13.01,2013-10-28 20:24:00,
2013-10-28 13:29:00,81.7,-14.7,27.05,South,184,8.3,15.4,2,0.00,,---,0.00,VWS V13.01,2013-10-28 20:29:00,
2013-10-28 13:34:00,81.3,-14.9,27.05,ENE,67,8.7,14.5,2,0.00,,---,0.00,VWS V13.01,2013-10-28 20:34:00,
2013-10-28 13:40:00,81.0,-15.2,27.05,SSE,150,5.4,10.5,2,0.00,,---,0.00,VWS V13.01,2013-10-28 20:40:00,
2013-10-28 13:45:00,80.8,-15.3,27.05,South,177,8.1,8.7,2,0.00,,---,0.00,VWS V13.01,2013-10-28 20:45:00,
2013-10-28 13:50:00,80.6,-15.4,27.05,SE,142,7.6,13.2,2,0.00,,---,0.00,VWS V13.01,2013-10-28 20:50:00,
2013-10-28 13:56:00,80.4,-15.5,27.05,SSW,200,8.1,13.2,2,0.00,,---,0.00,VWS V13.01,2013-10-28 20:56:00,
2013-10-28 14:01:00,80.4,-15.5,27.05,South,181,11.0,11.0,2,0.00,,---,0.00,VWS V13.01,2013-10-28 21:01:00,
2013-10-28 14:06:00,80.2,-15.6,27.05,South,181,7.6,10.1,2,0.00,,---,0.00,VWS V13.01,2013-10-28 21:06:00,
2013-10-28 14:11:00,80.2,-15.6,27.05,SSW,202,12.3,12.8,2,0.00,,---,0.00,VWS V13.01,2013-10-28 21:11:00,
2013-10-28 14:16:00,80.1,-15.8,27.05,ESE,118,10.1,13.6,2,0.00,,---,0.00,VWS V13.01,2013-10-28 21:16:00,
2013-10-28 14:21:00,80.2,-15.6,27.05,South,183,8.3,13.2,2,0.00,,---,0.00,VWS V13.01,2013-10-28 21:21:00,
2013-10-28 14:27:00,79.9,-15.9,27.05,SSW,192,5.4,12.8,2,0.00,,---,0.00,VWS V13.01,2013-10-28 21:27:00,
2013-10-28 14:32:00,80.1,-15.8,27.05,South,169,10.5,14.1,2,0.00,,---,0.00,VWS V13.01,2013-10-28 21:32:00,
2013-10-28 14:37:00,79.9,-15.9,27.05,South,170,12.3,12.8,2,0.00,,---,0.00,VWS V13.01,2013-10-28 21:37:00,
2013-10-28 14:42:00,79.3,-16.2,27.05,SSW,192,8.3,13.2,2,0.00,,---,0.00,VWS V13.01,2013-10-28 21:42:00,
2013-10-28 14:47:00,79.2,-16.3,27.05,SSW,195,14.5,14.5,2,0.00,,---,0.00,VWS V13.01,2013-10-28 21:47:00,
2013-10-28 14:52:00,79.2,-16.3,27.08,South,178,11.0,11.0,2,0.00,,---,0.00,VWS V13.01,2013-10-28 21:52:00,
2013-10-28 14:58:00,79.0,-16.5,27.08,SSW,211,12.8,14.5,2,0.00,,---,0.00,VWS V13.01,2013-10-28 21:58:00,
2013-10-28 15:03:00,78.6,-16.7,27.08,SSE,153,8.3,13.2,2,0.00,,---,0.00,VWS V13.01,2013-10-28 22:03:00,
2013-10-28 15:08:00,78.3,-16.9,27.08,SE,142,5.4,13.2,2,0.00,,---,0.00,VWS V13.01,2013-10-28 22:08:00,
2013-10-28 15:13:00,77.9,-17.1,27.08,SW,223,6.3,10.1,2,0.00,,---,0.00,VWS V13.01,2013-10-28 22:13:00,
2013-10-28 15:18:00,77.9,-17.1,27.08,WSW,257,8.3,12.8,2,0.00,,---,0.00,VWS V13.01,2013-10-28 22:18:00,
2013-10-28 15:23:00,77.7,-17.3,27.08,SSW,203,8.1,13.2,2,0.00,,---,0.00,VWS V13.01,2013-10-28 22:23:00,
2013-10-28 15:29:00,77.5,-17.4,27.08,SSW,193,13.6,13.6,2,0.00,,---,0.00,VWS V13.01,2013-10-28 22:29:00,
2013-10-28 15:34:00,77.2,-17.6,27.08,SW,222,7.6,10.1,2,0.00,,---,0.00,VWS V13.01,2013-10-28 22:34:00,
2013-10-28 15:39:00,77.2,-17.6,27.08,SW,223,11.4,12.8,2,0.00,,---,0.00,VWS V13.01,2013-10-28 22:39:00,
2013-10-28 15:45:00,77.0,-17.7,27.08,South,186,8.7,11.4,2,0.00,,---,0.00,VWS V13.01,2013-10-28 22:45:00,
2013-10-28 15:50:00,76.8,-17.8,27.08,South,177,10.5,10.5,2,0.00,,---,0.00,VWS V13.01,2013-10-28 22:50:00,
2013-10-28 15:55:00,76.6,-18.0,27.08,SSW,207,5.8,8.7,2,0.00,,---,0.00,VWS V13.01,2013-10-28 22:55:00,
2013-10-28 16:00:00,76.6,-18.0,27.08,South,188,8.3,8.3,2,0.00,,---,0.00,VWS V13.01,2013-10-28 23:00:00,
2013-10-28 16:05:00,76.5,-18.1,27.08,SSE,168,3.1,10.1,2,0.00,,---,0.00,VWS V13.01,2013-10-28 23:05:00,
2013-10-28 16:10:00,76.3,-18.2,27.08,SW,231,7.6,10.1,2,0.00,,---,0.00,VWS V13.01,2013-10-28 23:10:00,
2013-10-28 16:15:00,75.9,-18.4,27.08,ESE,109,6.3,8.7,2,0.00,,---,0.00,VWS V13.01,2013-10-28 23:15:00,
2013-10-28 16:20:00,75.7,-18.5,27.08,SSW,207,7.6,10.1,2,0.00,,---,0.00,VWS V13.01,2013-10-28 23:20:00,
2013-10-28 16:25:00,75.6,-18.6,27.08,SSW,193,2.7,8.1,2,0.00,,---,0.00,VWS V13.01,2013-10-28 23:25:00,
2013-10-28 16:31:00,75.4,-18.8,27.08,SE,143,5.4,8.7,2,0.00,,---,0.00,VWS V13.01,2013-10-28 23:31:00,
2013-10-28 16:36:00,75.2,-18.9,27.08,South,177,8.7,8.7,2,0.00,,---,0.00,VWS V13.01,2013-10-28 23:36:00,
2013-10-28 16:41:00,75.2,-18.9,27.08,SSW,204,2.7,5.8,2,0.00,,---,0.00,VWS V13.01,2013-10-28 23:41:00,
2013-10-28 16:46:00,75.0,-19.0,27.08,ESE,119,2.7,4.9,2,0.00,,---,0.00,VWS V13.01,2013-10-28 23:46:00,
2013-10-28 16:51:00,74.8,-19.1,27.08,SSW,204,0.0,6.3,2,0.00,,---,0.00,VWS V13.01,2013-10-28 23:51:00,
2013-10-28 16:57:00,74.7,-19.2,27.08,South,180,6.3,6.3,2,0.00,,---,0.00,VWS V13.01,2013-10-28 23:57:00,
2013-10-28 17:02:00,74.5,-19.3,27.08,SSW,192,2.7,6.3,2,0.00,,---,0.00,VWS V13.01,2013-10-29 00:02:00,
2013-10-28 17:07:00,74.3,-19.5,27.08,SW,229,5.8,5.8,2,0.00,,---,0.00,VWS V13.01,2013-10-29 00:07:00,
2013-10-28 17:13:00,74.1,-19.6,27.08,South,189,5.4,6.7,2,0.00,,---,0.00,VWS V13.01,2013-10-29 00:13:00,
2013-10-28 17:18:00,73.9,-19.7,27.08,SSW,192,6.3,6.3,2,0.00,,---,0.00,VWS V13.01,2013-10-29 00:18:00,
2013-10-28 17:23:00,73.8,-19.8,27.08,South,188,2.7,8.7,2,0.00,,---,0.00,VWS V13.01,2013-10-29 00:23:00,
2013-10-28 17:28:00,73.6,-19.9,27.08,South,190,7.6,8.3,2,0.00,,---,0.00,VWS V13.01,2013-10-29 00:28:00,
2013-10-28 17:33:00,73.4,-20.0,27.08,SW,225,4.0,8.1,2,0.00,,---,0.00,VWS V13.01,2013-10-29 00:33:00,
2013-10-28 17:38:00,73.2,-12.2,27.08,SW,218,4.9,7.6,3,0.00,,---,0.00,VWS V13.01,2013-10-29 00:38:00,
2013-10-28 17:43:00,73.0,-12.3,27.08,SSW,201,0.0,0.0,3,0.00,,---,0.00,VWS V13.01,2013-10-29 00:43:00,
2013-10-28 17:49:00,72.9,-12.5,27.08,South,176,0.0,0.0,3,0.00,,---,0.00,VWS V13.01,2013-10-29 00:49:00,
2013-10-28 17:54:00,72.7,-12.6,27.08,South,177,0.0,0.0,3,0.00,,---,0.00,VWS V13.01,2013-10-29 00:54:00,
2013-10-28 17:59:00,72.3,-7.0,27.08,South,177,0.0,0.0,4,0.00,,---,0.00,VWS V13.01,2013-10-29 00:59:00,
2013-10-28 18:05:00,72.1,-7.1,27.08,South,178,0.0,0.0,4,0.00,,---,0.00,VWS V13.01,2013-10-29 01:05:00,
2013-10-28 18:10:00,72.0,-7.3,27.08,ESE,118,0.0,0.0,4,0.00,,---,0.00,VWS V13.01,2013-10-29 01:10:00,
2013-10-28 18:15:00,71.8,1.1,27.08,ESE,118,0.0,0.0,6,0.00,,---,0.00,VWS V13.01,2013-10-29 01:15:00,
2013-10-28 18:20:00,71.6,1.0,27.08,SSE,158,0.0,0.0,6,0.00,,---,0.00,VWS V13.01,2013-10-29 01:20:00,
2013-10-28 18:26:00,71.6,9.8,27.08,SSE,158,0.0,0.0,9,0.00,,---,0.00,VWS V13.01,2013-10-29 01:26:00,
2013-10-28 18:31:00,71.4,9.7,27.08,SSE,160,0.0,0.0,9,0.00,,---,0.00,VWS V13.01,2013-10-29 01:31:00,
2013-10-28 18:36:00,71.1,15.9,27.08,SSE,160,0.0,0.0,12,0.00,,---,0.00,VWS V13.01,2013-10-29 01:36:00,
2013-10-28 18:42:00,70.7,15.6,27.08,SSE,160,0.0,0.0,12,0.00,,---,0.00,VWS V13.01,2013-10-29 01:42:00,
2013-10-28 18:47:00,70.5,19.1,27.08,SSE,160,0.0,0.0,14,0.00,,---,0.00,VWS V13.01,2013-10-29 01:47:00,
2013-10-28 18:52:00,70.3,18.9,27.11,SSE,160,0.0,0.0,14,0.00,,---,0.00,VWS V13.01,2013-10-29 01:52:00,
2013-10-28 18:58:00,70.2,18.8,27.11,SSE,160,0.0,0.0,14,0.00,,---,0.00,VWS V13.01,2013-10-29 01:58:00,
2013-10-28 19:03:00,70.0,18.6,27.11,SSE,160,0.0,0.0,14,0.00,,---,0.00,VWS V13.01,2013-10-29 02:03:00,
2013-10-28 19:08:00,70.0,18.6,27.11,SSE,160,0.0,0.0,14,0.00,,---,0.00,VWS V13.01,2013-10-29 02:08:00,
2013-10-28 19:13:00,70.0,18.6,27.11,WNW,285,0.0,0.0,14,0.00,,---,0.00,VWS V13.01,2013-10-29 02:13:00,
2013-10-28 19:18:00,70.2,18.8,27.11,SSW,208,4.0,4.0,14,0.00,,---,0.00,VWS V13.01,2013-10-29 02:18:00,
2013-10-28 19:24:00,70.3,18.9,27.11,SSE,168,8.7,10.1,14,0.00,,---,0.00,VWS V13.01,2013-10-29 02:24:00,
2013-10-28 19:29:00,70.3,18.9,27.11,SSW,193,2.7,8.3,14,0.00,,---,0.00,VWS V13.01,2013-10-29 02:29:00,
2013-10-28 19:34:00,70.3,18.9,27.11,SSW,192,3.6,8.7,14,0.00,,---,0.00,VWS V13.01,2013-10-29 02:34:00,
2013-10-28 19:39:00,70.3,23.5,27.11,SW,217,5.4,6.3,17,0.00,,---,0.00,VWS V13.01,2013-10-29 02:39:00,
2013-10-28 19:44:00,70.3,23.5,27.11,South,177,5.8,5.8,17,0.00,,---,0.00,VWS V13.01,2013-10-29 02:44:00,
2013-10-28 19:49:00,70.3,23.5,27.11,SSW,212,4.0,9.6,17,0.00,,---,0.00,VWS V13.01,2013-10-29 02:49:00,
2013-10-28 19:55:00,70.3,23.5,27.11,South,183,5.4,5.4,17,0.00,,---,0.00,VWS V13.01,2013-10-29 02:55:00,
2013-10-28 20:00:00,70.2,23.4,27.11,South,172,8.3,10.5,17,0.00,,---,0.00,VWS V13.01,2013-10-29 03:00:00,
2013-10-28 20:05:00,70.2,23.4,27.11,SSW,197,5.4,7.6,17,0.00,,---,0.00,VWS V13.01,2013-10-29 03:05:00,
2013-10-28 20:11:00,70.0,23.2,27.11,SSW,202,4.0,7.6,17,0.00,,---,0.00,VWS V13.01,2013-10-29 03:11:00,
2013-10-28 20:16:00,70.0,23.2,27.11,SSW,194,7.6,7.6,17,0.00,,---,0.00,VWS V13.01,2013-10-29 03:16:00,
2013-10-28 20:21:00,69.8,23.1,27.11,South,178,2.7,3.6,17,0.00,,---,0.00,VWS V13.01,2013-10-29 03:21:00,
2013-10-28 20:26:00,69.8,23.1,27.11,South,174,4.0,4.0,17,0.00,,---,0.00,VWS V13.01,2013-10-29 03:26:00,
2013-10-28 20:31:00,69.8,23.1,27.11,South,179,3.1,4.9,17,0.00,,---,0.00,VWS V13.01,2013-10-29 03:31:00,
2013-10-28 20:37:00,69.6,22.9,27.11,South,182,0.0,5.4,17,0.00,,---,0.00,VWS V13.01,2013-10-29 03:37:00,
2013-10-28 20:42:00,69.6,26.8,27.11,SSW,197,0.0,0.0,20,0.00,,---,0.00,VWS V13.01,2013-10-29 03:42:00,
2013-10-28 20:47:00,69.6,22.9,27.11,SSW,197,0.0,0.0,17,0.00,,---,0.00,VWS V13.01,2013-10-29 03:47:00,
2013-10-28 20:53:00,69.4,26.7,27.11,SSW,197,0.0,0.0,20,0.00,,---,0.00,VWS V13.01,2013-10-29 03:53:00,
2013-10-28 20:58:00,69.4,26.7,27.11,SSW,198,0.0,0.0,20,0.00,,---,0.00,VWS V13.01,2013-10-29 03:58:00,
2013-10-28 21:01:00,69.4,26.7,27.11,SSW,198,0.0,0.0,20,0.00,,---,0.00,VWS V13.01,2013-10-29 04:01:00,
2013-10-28 21:02:00,69.4,26.7,27.11,SSW,198,0.0,0.0,20,0.00,,---,0.00,VWS V13.01,2013-10-29 04:02:00,
2013-10-28 21:03:00,69.3,26.5,27.11,SSW,198,0.0,0.0,20,0.00,,---,0.00,VWS V13.01,2013-10-29 04:03:00,
2013-10-28 21:04:00,69.3,26.5,27.11,SSW,198,0.0,0.0,20,0.00,,---,0.00,VWS V13.01,2013-10-29 04:04:00,
2013-10-28 21:07:00,69.1,26.4,27.11,SSW,198,0.0,0.0,20,0.00,,---,0.00,VWS V13.01,2013-10-29 04:07:00,
2013-10-28 21:13:00,68.9,26.2,27.11,SSW,198,0.0,0.0,20,0.00,,---,0.00,VWS V13.01,2013-10-29 04:13:00,
2013-10-28 21:18:00,68.7,28.4,27.11,SSW,198,0.0,0.0,22,0.00,,---,0.00,VWS V13.01,2013-10-29 04:18:00,
2013-10-28 21:23:00,68.5,25.9,27.14,SSW,198,0.0,0.0,20,0.00,,---,0.00,VWS V13.01,2013-10-29 04:23:00,
2013-10-28 21:29:00,68.4,28.1,27.14,SSW,198,0.0,0.0,22,0.00,,---,0.00,VWS V13.01,2013-10-29 04:29:00,
2013-10-28 21:34:00,68.0,27.8,27.14,SSW,198,0.0,0.0,22,0.00,,---,0.00,VWS V13.01,2013-10-29 04:34:00,
2013-10-28 21:39:00,67.6,28.5,27.14,SSW,198,0.0,0.0,23,0.00,,---,0.00,VWS V13.01,2013-10-29 04:39:00,
2013-10-28 21:45:00,67.5,28.4,27.14,SSW,198,0.0,0.0,23,0.00,,---,0.00,VWS V13.01,2013-10-29 04:45:00,
2013-10-28 21:50:00,67.5,28.4,27.14,SSW,198,0.0,0.0,23,0.00,,---,0.00,VWS V13.01,2013-10-29 04:50:00,
2013-10-28 21:55:00,67.3,28.2,27.14,SSW,198,0.0,0.0,23,0.00,,---,0.00,VWS V13.01,2013-10-29 04:55:00,
2013-10-28 22:00:00,66.9,27.9,27.14,SSW,198,0.0,0.0,23,0.00,,---,0.00,VWS V13.01,2013-10-29 05:00:00,
2013-10-28 22:06:00,66.7,27.8,27.14,SSW,198,0.0,0.0,23,0.00,,---,0.00,VWS V13.01,2013-10-29 05:06:00,
2013-10-28 22:11:00,66.6,27.6,27.14,SSW,198,0.0,0.0,23,0.00,,---,0.00,VWS V13.01,2013-10-29 05:11:00,
2013-10-28 22:16:00,66.2,27.3,27.14,SSW,198,0.0,0.0,23,0.00,,---,0.00,VWS V13.01,2013-10-29 05:16:00,
2013-10-28 22:21:00,66.0,28.2,27.14,SSW,198,0.0,0.0,24,0.00,,---,0.00,VWS V13.01,2013-10-29 05:21:00,
2013-10-28 22:26:00,65.8,28.1,27.14,SSW,198,0.0,0.0,24,0.00,,---,0.00,VWS V13.01,2013-10-29 05:26:00,
2013-10-28 22:31:00,65.7,27.9,27.14,SSW,198,0.0,0.0,24,0.00,,---,0.00,VWS V13.01,2013-10-29 05:31:00,
2013-10-28 22:37:00,65.5,27.8,27.14,SSW,198,0.0,0.0,24,0.00,,---,0.00,VWS V13.01,2013-10-29 05:37:00,
2013-10-28 22:42:00,65.7,27.9,27.14,SSW,198,0.0,0.0,24,0.00,,---,0.00,VWS V13.01,2013-10-29 05:42:00,
2013-10-28 22:47:00,65.5,27.8,27.14,SSW,198,0.0,0.0,24,0.00,,---,0.00,VWS V13.01,2013-10-29 05:47:00,
2013-10-28 22:53:00,65.5,27.8,27.14,SSW,198,0.0,0.0,24,0.00,,---,0.00,VWS V13.01,2013-10-29 05:53:00,
2013-10-28 22:58:00,65.8,28.1,27.14,South,174,0.0,0.0,24,0.00,,---,0.00,VWS V13.01,2013-10-29 05:58:00,
2013-10-28 23:03:00,66.4,28.5,27.14,South,176,0.0,0.0,24,0.00,,---,0.00,VWS V13.01,2013-10-29 06:03:00,
2013-10-28 23:08:00,66.7,28.8,27.14,SSE,159,2.2,4.0,24,0.00,,---,0.00,VWS V13.01,2013-10-29 06:08:00,
2013-10-28 23:14:00,67.1,29.1,27.14,SSW,193,0.0,6.3,24,0.00,,---,0.00,VWS V13.01,2013-10-29 06:14:00,
2013-10-28 23:19:00,67.3,29.3,27.14,South,174,0.0,0.0,24,0.00,,---,0.00,VWS V13.01,2013-10-29 06:19:00,
2013-10-28 23:24:00,67.3,29.3,27.14,South,174,0.0,0.0,24,0.00,,---,0.00,VWS V13.01,2013-10-29 06:24:00,
2013-10-28 23:30:00,67.3,28.2,27.14,SSE,165,0.0,0.0,23,0.00,,---,0.00,VWS V13.01,2013-10-29 06:30:00,
2013-10-28 23:35:00,67.3,29.3,27.14,SSE,165,0.0,0.0,24,0.00,,---,0.00,VWS V13.01,2013-10-29 06:35:00,
2013-10-28 23:40:00,67.1,28.1,27.14,SSE,165,0.0,0.0,23,0.00,,---,0.00,VWS V13.01,2013-10-29 06:40:00,
2013-10-28 23:45:00,67.1,28.1,27.14,SSW,198,0.0,0.0,23,0.00,,---,0.00,VWS V13.01,2013-10-29 06:45:00,
2013-10-28 23:50:00,67.1,28.1,27.14,SSW,198,0.0,0.0,23,0.00,,---,0.00,VWS V13.01,2013-10-29 06:50:00,
2013-10-28 23:55:00,66.9,27.9,27.14,SSW,198,0.0,0.0,23,0.00,,---,0.00,VWS V13.01,2013-10-29 06:55:00,